| time (UTC) | temp F | wind direction | speed MPH | gust MPH | rain 1hr in | rain 24hr in | rain mn in | humidity % | barometer mb |
| 20260506004531 | 59 | 257 | 0.0 | 0.0 | 0.00 | 0.00 | 0.00 | 98 | 1006.3 |
| 20260506003031 | 59 | 257 | 0.0 | 0.0 | 0.00 | 0.00 | 0.00 | 98 | 1006.1 |
| 20260506001533 | 59 | 257 | 0.0 | 0.0 | 0.00 | 0.00 | 0.00 | 98 | 1006.1 |
| 20260506000030 | 59 | 257 | 0.0 | 1.0 | 0.00 | 0.00 | 0.00 | 97 | 1006.1 |
| 20260505234530 | 59 | 257 | 0.0 | 0.0 | 0.00 | 0.00 | 0.00 | 97 | 1006.2 |
| 20260505233030 | 59 | 257 | 0.0 | 1.0 | 0.00 | 0.00 | 0.00 | 97 | 1006.1 |
| 20260505231529 | 59 | 232 | 0.0 | 4.0 | 0.00 | 0.00 | 0.00 | 97 | 1006.2 |
| 20260505230027 | 60 | 222 | 0.0 | 2.0 | 0.00 | 0.00 | 0.00 | 97 | 1006.5 |
| 20260505224526 | 60 | 256 | 0.0 | 2.0 | 0.00 | 0.00 | 0.00 | 97 | 1006.6 |
| 20260505223036 | 60 | 265 | 0.0 | 2.0 | 0.00 | 0.00 | 0.00 | 97 | 1006.8 |
| 20260505221526 | 60 | 257 | 0.0 | 1.0 | 0.00 | 0.00 | 0.00 | 97 | 1006.9 |
| 20260505220042 | 60 | 255 | 0.0 | 1.0 | 0.00 | 0.00 | 0.00 | 97 | 1006.9 |
| 20260505214533 | 60 | 237 | 0.0 | 1.0 | 0.00 | 0.00 | 0.00 | 96 | 1007.0 |
| 20260505213024 | 60 | 245 | 0.0 | 1.0 | 0.00 | 0.00 | 0.00 | 96 | 1007.0 |
| 20260505211523 | 60 | 248 | 0.0 | 2.0 | 0.00 | 0.00 | 0.00 | 96 | 1006.9 |
| 20260505210023 | 60 | 271 | 0.0 | 0.0 | 0.00 | 0.00 | 0.00 | 96 | 1006.9 |
| 20260505204522 | 60 | 271 | 0.0 | 0.0 | 0.00 | 0.00 | 0.00 | 95 | 1007.0 |
| 20260505203021 | 60 | 271 | 0.0 | 0.0 | 0.00 | 0.00 | 0.00 | 95 | 1006.9 |
| 20260505201520 | 60 | 274 | 0.0 | 1.0 | 0.00 | 0.00 | 0.00 | 93 | 1007.0 |
| 20260505200032 | 61 | 263 | 0.0 | 2.0 | 0.00 | 0.00 | 0.00 | 90 | 1007.5 |
| 20260505194520 | 64 | 256 | 0.0 | 3.0 | 0.00 | 0.00 | 0.00 | 81 | 1007.4 |
| 20260505193019 | 66 | 243 | 0.0 | 1.0 | 0.00 | 0.00 | 0.00 | 73 | 1006.8 |
| 20260505191526 | 66 | 338 | 0.0 | 0.0 | 0.00 | 0.00 | 0.00 | 74 | 1007.0 |
| 20260505190018 | 66 | 252 | 0.0 | 1.0 | 0.00 | 0.00 | 0.00 | 72 | 1007.2 |
| 20260505184518 | 67 | 258 | 0.0 | 2.0 | 0.00 | 0.00 | 0.00 | 71 | 1007.4 |
| 20260505183020 | 67 | 241 | 0.0 | 2.0 | 0.00 | 0.00 | 0.00 | 70 | 1007.6 |
| 20260505181521 | 67 | 293 | 0.0 | 5.0 | 0.00 | 0.00 | 0.00 | 70 | 1007.7 |
| 20260505180016 | 66 | 273 | 0.0 | 2.0 | 0.00 | 0.00 | 0.00 | 71 | 1007.7 |
| 20260505174516 | 66 | 266 | 0.0 | 3.0 | 0.00 | 0.00 | 0.00 | 72 | 1007.9 |
| 20260505173015 | 66 | 252 | 0.0 | 6.0 | 0.00 | 0.00 | 0.00 | 73 | 1008.0 |
| 20260505171514 | 65 | 243 | 0.0 | 3.0 | 0.00 | 0.00 | 0.00 | 73 | 1008.1 |
| 20260505170014 | 66 | 269 | 0.0 | 3.0 | 0.00 | 0.00 | 0.00 | 73 | 1008.0 |
| 20260505164514 | 66 | 250 | 0.0 | 4.0 | 0.00 | 0.00 | 0.00 | 71 | 1008.0 |
| 20260505163013 | 67 | 302 | 0.0 | 3.0 | 0.00 | 0.00 | 0.00 | 70 | 1008.0 |
| 20260505161533 | 67 | 245 | 0.0 | 5.0 | 0.00 | 0.00 | 0.00 | 70 | 1008.0 |
| 20260505153012 | 66 | 274 | 0.0 | 2.0 | 0.00 | 0.00 | 0.00 | 76 | 1008.0 |
| 20260505151506 | 66 | 261 | 0.0 | 4.0 | 0.00 | 0.00 | 0.00 | 76 | 1008.0 |
| 20260505130115 | 57 | 238 | 0.0 | 1.0 | 0.00 | 0.00 | 0.00 | 96 | 1007.1 |
| 20260505124602 | 57 | 265 | 0.0 | 2.0 | 0.00 | 0.00 | 0.00 | 96 | 1007.1 |
| 20260505123102 | 56 | 253 | 0.0 | 4.0 | 0.00 | 0.00 | 0.00 | 96 | 1007.4 |
| 20260505121559 | 56 | 239 | 0.0 | 3.0 | 0.00 | 0.00 | 0.00 | 96 | 1007.3 |
| 20260505120113 | 56 | 260 | 0.0 | 4.0 | 0.00 | 0.00 | 0.00 | 96 | 1007.3 |
| 20260505114557 | 55 | 252 | 0.0 | 2.0 | 0.00 | 0.00 | 0.00 | 96 | 1007.1 |
| 20260505113110 | 55 | 266 | 0.0 | 2.0 | 0.00 | 0.00 | 0.00 | 95 | 1006.9 |
| 20260505111555 | 55 | 255 | 0.0 | 1.0 | 0.00 | 0.00 | 0.00 | 95 | 1006.3 |
| 20260505110105 | 55 | 252 | 0.0 | 1.0 | 0.00 | 0.00 | 0.00 | 94 | 1006.3 |
| 20260505101551 | 56 | 264 | 0.0 | 0.0 | 0.00 | 0.00 | 0.00 | 91 | 1007.4 |
| 20260505100046 | 57 | 264 | 0.0 | 1.0 | 0.00 | 0.00 | 0.00 | 90 | 1007.8 |
| 20260505094542 | 58 | 264 | 0.0 | 0.0 | 0.00 | 0.00 | 0.00 | 88 | 1007.7 |
| 20260505093039 | 60 | 264 | 0.0 | 1.0 | 0.00 | 0.00 | 0.00 | 84 | 1008.1 |
| 20260505091536 | 61 | 264 | 0.0 | 3.0 | 0.00 | 0.00 | 0.00 | 79 | 1007.3 |
| 20260505090041 | 61 | 313 | 0.0 | 1.0 | 0.00 | 0.00 | 0.00 | 78 | 1007.3 |
| 20260505084530 | 62 | 261 | 0.0 | 0.0 | 0.00 | 0.00 | 0.00 | 76 | 1006.7 |
| 20260505083024 | 62 | 261 | 0.0 | 0.0 | 0.00 | 0.00 | 0.00 | 73 | 1006.5 |
| 20260505081523 | 63 | 261 | 0.0 | 1.0 | 0.00 | 0.00 | 0.00 | 70 | 1006.4 |
| 20260505080038 | 63 | 255 | 0.0 | 0.0 | 0.00 | 0.00 | 0.00 | 71 | 1006.5 |
| 20260505074525 | 64 | 255 | 0.0 | 1.0 | 0.00 | 0.00 | 0.00 | 68 | 1006.1 |
| 20260505073027 | 65 | 259 | 0.0 | 1.0 | 0.00 | 0.00 | 0.00 | 63 | 1005.7 |
| 20260505071516 | 65 | 266 | 0.0 | 4.0 | 0.00 | 0.00 | 0.00 | 63 | 1005.7 |
| 20260505070016 | 64 | 266 | 0.0 | 1.0 | 0.00 | 0.00 | 0.00 | 65 | 1005.8 |
| 20260505064513 | 64 | 261 | 0.0 | 1.0 | 0.00 | 0.00 | 0.00 | 65 | 1005.6 |
| 20260505063011 | 65 | 238 | 0.0 | 2.0 | 0.00 | 0.00 | 0.00 | 64 | 1005.6 |
| 20260505061509 | 66 | 252 | 0.0 | 3.0 | 0.00 | 0.00 | 0.00 | 61 | 1005.4 |
| 20260505060009 | 66 | 250 | 0.0 | 4.0 | 0.00 | 0.00 | 0.00 | 61 | 1005.1 |
| 20260505054508 | 66 | 231 | 0.0 | 5.0 | 0.00 | 0.00 | 0.00 | 61 | 1004.9 |
| 20260505053006 | 66 | 253 | 0.0 | 4.0 | 0.00 | 0.00 | 0.00 | 61 | 1004.7 |
| 20260505051506 | 66 | 239 | 0.0 | 5.0 | 0.00 | 0.00 | 0.00 | 62 | 1004.7 |
| 20260505041557 | 65 | 245 | 0.0 | 2.0 | 0.00 | 0.00 | 0.00 | 65 | 1005.4 |
| 20260505034554 | 66 | 257 | 0.0 | 3.0 | 0.00 | 0.00 | 0.00 | 63 | 1005.6 |
| 20260505033056 | 66 | 258 | 1.0 | 3.0 | 0.00 | 0.00 | 0.00 | 63 | 1005.7 |
| 20260505031559 | 67 | 268 | 0.0 | 2.0 | 0.00 | 0.00 | 0.00 | 63 | 1005.6 |
| 20260505030058 | 67 | 283 | 0.0 | 4.0 | 0.00 | 0.00 | 0.00 | 62 | 1005.6 |
| 20260505024554 | 67 | 245 | 0.0 | 2.0 | 0.00 | 0.00 | 0.00 | 62 | 1005.5 |
| 20260505023052 | 67 | 245 | 0.0 | 3.0 | 0.00 | 0.00 | 0.00 | 62 | 1005.2 |
| 20260505021551 | 67 | 246 | 0.0 | 3.0 | 0.00 | 0.00 | 0.00 | 61 | 1005.0 |
| 20260505020152 | 68 | 259 | 0.0 | 2.0 | 0.00 | 0.00 | 0.00 | 61 | 1004.8 |
| 20260505014603 | 68 | 264 | 0.0 | 2.0 | 0.00 | 0.00 | 0.00 | 59 | 1004.8 |
| 20260505013049 | 68 | 245 | 0.0 | 3.0 | 0.00 | 0.00 | 0.00 | 58 | 1004.6 |
| 20260505011551 | 68 | 236 | 0.0 | 2.0 | 0.00 | 0.00 | 0.00 | 57 | 1004.5 |
| 20260505010047 | 69 | 248 | 0.0 | 1.0 | 0.00 | 0.00 | 0.00 | 57 | 1004.4 |